This demonstration page uses our WeatherBlox Daily Observations layout. Learn more.

Left ArrowRight Arrow

Hourly Observations for November 29, 2018

Temp ( °F °C ) Dew Point ( °F °C ) Humidity (%) Winds ( mph kmh ) Pressure ( in mb ) Visibility ( mi km ) Precip ( " mm )
12:53 am 00:53 Cloudy 28 -2.2 22 -5.6 78 78 SE 3 6 30.12 1020 10 16 N/A
1:53 am 01:53 Cloudy 29 -1.7 23 -5 78 78 N N/A 30.13 1020 10 16 N/A
2:53 am 02:53 Mostly Cloudy 28 -2.2 23 -5 81 81 ESE 3 6 30.12 1020 10 16 N/A
3:53 am 03:53 Cloudy 29 -1.7 23 -5 78 78 SE 3 6 30.12 1020 10 16 N/A
4:53 am 04:53 Cloudy 29 -1.7 22 -5.6 75 75 SE 3 6 30.09 1019 10 16 N/A
5:53 am 05:53 Mostly Clear 29 -1.7 22 -5.6 75 75 VRB 3 6 30.09 1019 10 16 N/A
6:53 am 06:53 Cloudy 30 -1.1 22 -5.6 72 72 N N/A 30.10 1019 10 16 N/A
7:53 am 07:53 Cloudy 30 -1.1 23 -5 75 75 VRB 3 6 30.08 1019 10 16 N/A
8:53 am 08:53 Cloudy 30 -1.1 23 -5 75 75 ESE 6 9 30.06 1018 10 16 N/A
9:53 am 09:53 Cloudy 31 -0.6 23 -5 72 72 ESE 6 9 30.06 1018 10 16 N/A
10:13 am 10:13 Cloudy with Light Wintry Mix 32 undefined 24 -4.4 73 73 VRB 6 9 30.09 1019 10 16 N/A
10:53 am 10:53 Cloudy 33 0.6 24 -4.4 70 70 ESE 5 7 30.06 1018 10 16 N/A
11:53 am 11:53 Cloudy 34 1.1 25 -3.9 70 70 SE 7 11 30.01 1016 10 16 N/A
12:53 pm 12:53 Cloudy 35 1.7 26 -3.3 70 70 SE 5 7 29.98 1015 10 16 N/A
1:53 pm 13:53 Cloudy 36 2.2 28 -2.2 73 73 SSE 6 9 29.96 1015 10 16 N/A
2:03 pm 14:03 Cloudy 35 1.7 28 -2.2 76 76 VRB 5 7 29.97 1015 10 16 N/A
2:53 pm 14:53 Cloudy 35 1.7 30 -1.1 82 82 S 5 7 29.95 1014 10 16 N/A
3:53 pm 15:53 Cloudy 35 1.7 31 -0.6 85 85 N N/A 29.96 1014 7 11 N/A
4:21 pm 16:21 Cloudy with Mist and Fog 36 2.2 32 undefined 86 86 N N/A 29.97 1015 6 10 N/A
4:53 pm 16:53 Cloudy with Mist and Fog 36 2.2 32 undefined 86 86 VRB 5 7 29.96 1015 6 10 N/A
5:53 pm 17:53 Cloudy with Mist and Fog 35 1.7 32 undefined 89 89 VRB 3 6 29.96 1014 6 10 N/A
6:53 pm 18:53 Cloudy with Mist and Fog 36 2.2 33 0.6 89 89 ENE 3 6 29.96 1015 4 6 N/A
7:13 pm 19:13 Cloudy with Mist and Fog 36 2.2 33 0.6 89 89 E 3 6 29.97 1015 3 4 N/A
7:37 pm 19:37 Cloudy with Mist and Fog 35 1.7 34 1.1 96 96 N N/A 29.97 1015 2 3 N/A
7:45 pm 19:45 Cloudy with Mist and Fog 36 2.2 34 1.1 93 93 E 3 6 29.97 1015 2 3 N/A
7:53 pm 19:53 Cloudy with Mist and Fog 36 2.2 34 1.1 93 93 N N/A 29.96 1015 2 3 N/A
8:02 pm 20:02 Cloudy with Mist and Fog 36 2.2 34 1.1 93 93 N N/A 29.97 1015 2 3 N/A
8:18 pm 20:18 Cloudy with Mist and Fog 36 2.2 34 1.1 93 93 N N/A 29.97 1015 2 3 N/A
8:29 pm 20:29 Cloudy with Mist and Fog 36 2.2 34 1.1 93 93 E 3 6 29.97 1015 2 2 N/A
8:44 pm 20:44 Cloudy with Mist and Fog 36 2.2 34 1.1 93 93 E 3 6 29.97 1015 2 3 N/A
8:48 pm 20:48 Cloudy with Mist and Fog 36 2 34 1 93 93 E 5 7 29.97 1015 3 4 N/A
8:53 pm 20:53 Cloudy with Mist and Fog 36 2.2 34 1.1 93 93 E 3 6 29.95 1014 3 4 N/A
9:01 pm 21:01 Cloudy with Mist and Fog 37 2.8 34 1.1 89 89 N N/A 29.97 1015 3 5 N/A
9:53 pm 21:53 Cloudy with Mist and Fog 37 2.8 35 1.7 93 93 N N/A 29.97 1015 4 6 N/A
10:32 pm 22:32 Cloudy with Mist and Fog 37 2.8 35 1.7 93 93 N N/A 29.97 1015 4 6 N/A
10:53 pm 22:53 Cloudy with Mist and Fog 37 2.8 35 1.7 93 93 N N/A 29.96 1015 4 6 N/A
11:18 pm 23:18 Cloudy with Mist and Fog 37 2.8 35 1.7 93 93 N N/A 29.97 1015 5 8 N/A
11:53 pm 23:53 Cloudy with Mist and Fog 38 3.3 35 1.7 89 89 N N/A 29.96 1015 5 8 N/A

Powered by AerisWeather